FW5436 Weather Reports


Display with metric or nautical units.
time (UTC)temp
F
wind
direction
speed
MPH
gust
MPH
rain 1hr
in
rain 24hr
in
rain mn
in
humidity
%
barometer
mb
20260506170917 64 315 0.0 4.0 0.00 0.00 0.00 94 1007.8
20260506165351 64 248 1.0 4.0 0.00 0.00 0.00 93 1008.0
20260506164837 64 248 1.0 4.0 0.00 0.00 0.00 93 1008.0
20260506164329 64 270 1.0 4.0 0.00 0.00 0.00 93 1008.6
20260506163307 64 135 2.0 4.0 0.00 0.00 0.00 93 1009.0
20260506162756 64 315 0.0 4.0 0.00 0.00 0.00 93 1009.0
20260506162248 64 68 1.0 4.0 0.00 0.00 0.00 93 1008.4
20260506161737 64 293 0.0 4.0 0.00 0.00 0.00 92 1008.4
20260506161232 64 248 1.0 4.0 0.00 0.00 0.00 92 1008.8
20260506160717 64 270 1.0 4.0 0.00 0.00 0.00 92 1009.1
20260506160207 64 293 1.0 6.0 0.00 0.00 0.00 92 1009.2
20260506155657 64 338 2.0 6.0 0.00 0.00 0.00 91 1009.9
20260506155146 64 23 1.0 4.0 0.00 0.00 0.00 91 1009.9
20260506154636 64 225 1.0 4.0 0.00 0.00 0.00 91 1009.9
20260506154125 64 158 1.0 6.0 0.00 0.00 0.00 90 1010.0
20260506153615 64 270 1.0 7.0 0.00 0.00 0.00 90 1010.1
20260506152555 65 338 1.0 7.0 0.00 0.00 0.00 89 1010.2
20260506151535 66 203 2.0 7.0 0.00 0.00 0.00 87 1010.4
20260506151024 66 23 2.0 8.0 0.00 0.00 0.00 86 1010.5
20260506150515 67 135 1.0 8.0 0.00 0.00 0.00 86 1010.3
20260506150005 67 225 2.0 6.0 0.00 0.00 0.00 85 1010.7
20260506144944 68 68 2.0 4.0 0.00 0.00 0.00 83 1010.4
20260506144434 68 45 1.0 4.0 0.00 0.00 0.00 82 1010.5
20260506143924 68 338 1.0 8.0 0.00 0.00 0.00 82 1010.3
20260506143414 68 315 2.0 8.0 0.00 0.00 0.00 82 1010.7
20260506142903 68 45 2.0 6.0 0.00 0.00 0.00 82 1010.9
20260506142354 68 45 1.0 6.0 0.00 0.00 0.00 82 1011.2
20260506141843 68 180 1.0 4.0 0.00 0.00 0.00 82 1011.3
20260506141333 67 315 1.0 4.0 0.00 0.00 0.00 83 1011.3
20260506140823 67 225 1.0 4.0 0.00 0.00 0.00 83 1011.3
20260506140313 66 23 1.0 4.0 0.00 0.00 0.00 84 1011.4
20260506135253 65 135 1.0 4.0 0.00 0.00 0.00 86 1011.6
20260506134744 66 248 1.0 6.0 0.00 0.00 0.00 86 1011.3
20260506134233 65 315 1.0 6.0 0.00 0.00 0.00 86 1011.7
20260506133722 66 270 2.0 6.0 0.00 0.00 0.00 87 1011.6
20260506133212 65 113 2.0 4.0 0.00 0.00 0.00 88 1011.9
20260506132703 65 0 1.0 6.0 0.00 0.00 0.00 88 1011.9
20260506132152 64 270 2.0 6.0 0.00 0.00 0.00 88 1012.0
20260506130018 64 248 2.0 7.0 0.00 0.00 0.00 91 1012.0
20260506125509 64 248 2.0 6.0 0.00 0.00 0.00 92 1012.1
20260506124958 63 135 2.0 6.0 0.00 0.00 0.00 94 1012.2
20260506122918 62 270 1.0 4.0 0.00 0.00 0.00 95 1012.3
20260506122408 62 23 0.0 4.0 0.00 0.00 0.00 96 1012.4
20260506121857 62 248 1.0 0.0 0.00 0.00 0.00 96 1012.5
20260506120730 61 68 0.0 2.0 0.00 0.00 0.00 96 1012.8
20260506120220 61 180 0.0 2.0 0.00 0.00 0.00 96 1012.9
20260506115159 61 45 0.0 2.0 0.00 0.00 0.00 97 1012.7
20260506114650 61 315 0.0 2.0 0.00 0.00 0.00 97 1012.7
20260506114139 61 90 0.0 2.0 0.00 0.00 0.00 97 1012.6
20260506113628 61 113 0.0 2.0 0.00 0.00 0.00 97 1012.7
20260506113118 61 0 1.0 2.0 0.00 0.00 0.00 97 1013.0
20260506112608 61 248 0.0 2.0 0.00 0.00 0.00 97 1012.8
20260506112058 61 248 1.0 2.0 0.00 0.00 0.00 97 1012.7
20260506111548 61 0 0.0 2.0 0.00 0.00 0.00 97 1012.8
20260506111037 60 90 0.0 2.0 0.00 0.00 0.00 97 1013.0
20260506110527 60 248 1.0 2.0 0.00 0.00 0.00 97 1012.7
20260506110017 60 68 0.0 2.0 0.00 0.00 0.00 97 1012.8
20260506105507 60 180 0.0 2.0 0.00 0.00 0.00 97 1012.8
20260506104957 60 293 0.0 4.0 0.00 0.00 0.00 97 1012.5
20260506104447 60 203 2.0 4.0 0.00 0.00 0.00 97 1012.8
20260506103936 60 293 1.0 4.0 0.00 0.00 0.00 97 1012.8
20260506102917 60 203 0.0 2.0 0.00 0.00 0.00 97 1012.9
20260506102406 59 203 0.0 2.0 0.00 0.00 0.00 97 1013.1
20260506101857 59 293 0.0 2.0 0.00 0.00 0.00 97 1012.9
20260506101346 59 225 0.0 2.0 0.00 0.00 0.00 97 1013.0
20260506100836 59 248 0.0 2.0 0.00 0.00 0.00 97 1013.2
20260506100327 59 270 0.0 2.0 0.00 0.00 0.00 97 1013.4
20260506095306 59 158 0.0 2.0 0.00 0.00 0.00 97 1012.9
20260506094755 59 203 0.0 2.0 0.00 0.00 0.00 97 1013.0
20260506094245 59 315 0.0 2.0 0.00 0.00 0.00 97 1013.2
20260506093734 59 158 0.0 2.0 0.00 0.00 0.00 97 1013.2
20260506093225 59 203 0.0 2.0 0.00 0.00 0.00 97 1013.4
20260506092714 59 225 0.0 2.0 0.00 0.00 0.00 97 1013.2
20260506092204 59 203 0.0 2.0 0.00 0.00 0.00 97 1013.4
20260506091657 59 225 0.0 0.0 0.00 0.00 0.00 97 1013.3
20260506091144 58 270 0.0 2.0 0.00 0.00 0.00 97 1013.3
20260506090641 59 338 0.0 2.0 0.00 0.00 0.00 97 1013.3
20260506090124 59 203 0.0 2.0 0.00 0.00 0.00 97 1013.4
20260506085614 58 203 0.0 2.0 0.00 0.00 0.00 97 1013.3
20260506085104 59 203 0.0 2.0 0.00 0.00 0.00 97 1013.6
20260506084554 59 203 0.0 2.0 0.00 0.00 0.00 97 1013.6
20260506084043 59 203 0.0 2.0 0.00 0.00 0.00 97 1013.7
20260506083533 59 203 0.0 2.0 0.00 0.00 0.00 97 1013.7
20260506082514 59 203 0.0 2.0 0.00 0.00 0.00 97 1014.0
20260506082004 59 180 0.0 2.0 0.00 0.00 0.00 97 1014.0
20260506081453 58 180 0.0 2.0 0.00 0.00 0.00 97 1014.1
20260506080943 58 180 0.0 2.0 0.00 0.00 0.00 97 1014.0
20260506080433 58 270 0.0 0.0 0.00 0.00 0.00 97 1014.0
20260506073331 60 203 0.0 2.0 0.00 0.00 0.00 97 1013.3
20260506072822 60 113 0.0 4.0 0.00 0.00 0.00 97 1013.6
20260506072311 60 113 0.0 4.0 0.00 0.00 0.00 97 1013.4
20260506071801 60 68 0.0 2.0 0.00 0.00 0.00 97 1013.5
20260506070740 60 248 0.0 2.0 0.00 0.00 0.00 97 1013.3
20260506070230 60 180 0.0 2.0 0.00 0.00 0.00 97 1013.4
20260506062109 60 158 1.0 2.0 0.00 0.00 0.00 97 1013.4
20260506061600 60 23 0.0 2.0 0.00 0.00 0.00 97 1013.5
20260506061049 60 248 0.0 2.0 0.00 0.00 0.00 97 1013.7
20260506050947 59 338 0.0 2.0 0.00 0.00 0.00 97 1013.9
20260506044907 59 293 0.0 0.0 0.00 0.00 0.00 96 1013.8
20260506044356 59 293 0.0 2.0 0.00 0.00 0.00 96 1013.8
20260506043846 58 293 0.0 2.0 0.00 0.00 0.00 96 1013.7
20260506043337 59 293 0.0 0.0 0.00 0.00 0.00 96 1013.7
20260506042825 58 293 0.0 0.0 0.00 0.00 0.00 96 1013.3
20260506042316 58 293 0.0 0.0 0.00 0.00 0.00 96 1013.4
20260506041806 57 293 0.0 0.0 0.00 0.00 0.00 96 1013.6
20260506040745 57 293 0.0 0.0 0.00 0.00 0.00 96 1013.6
20260506040235 57 293 0.0 0.0 0.00 0.00 0.00 96 1013.4
20260506035725 58 293 0.0 0.0 0.00 0.00 0.00 96 1013.3
20260506035215 58 293 0.0 0.0 0.00 0.00 0.00 96 1013.3
20260506034705 58 293 0.0 0.0 0.00 0.00 0.00 96 1013.3
20260506034156 59 315 0.0 0.0 0.00 0.00 0.00 96 1013.4
20260506033644 58 315 0.0 0.0 0.00 0.00 0.00 96 1013.2
20260506033135 59 315 0.0 0.0 0.00 0.00 0.00 96 1013.4
20260506032624 59 338 0.0 0.0 0.00 0.00 0.00 96 1013.1
20260506032114 59 293 0.0 0.0 0.00 0.00 0.00 96 1013.2
20260506031603 59 315 0.0 0.0 0.00 0.00 0.00 96 1013.4
20260506031055 59 0 0.0 0.0 0.00 0.00 0.00 96 1013.6
20260506030342 58 90 0.0 2.0 0.00 0.00 0.00 96 1013.2
20260506025833 57 90 0.0 0.0 0.00 0.00 0.00 95 1013.4
20260506024411 57 90 0.0 0.0 0.00 0.00 0.00 95 1013.3
20260506023902 57 90 0.0 0.0 0.00 0.00 0.00 95 1013.5
20260506023350 57 90 0.0 0.0 0.00 0.00 0.00 95 1013.5
20260506022840 57 90 0.0 0.0 0.00 0.00 0.00 95 1013.5
20260506022331 56 90 0.0 0.0 0.00 0.00 0.00 95 1013.3
20260506021820 57 90 0.0 0.0 0.00 0.00 0.00 95 1013.6
20260506021310 57 90 0.0 0.0 0.00 0.00 0.00 95 1013.5
20260506020800 57 90 0.0 0.0 0.00 0.00 0.00 95 1013.6
20260506015740 57 90 0.0 0.0 0.00 0.00 0.00 95 1013.6
20260506015229 57 90 0.0 0.0 0.00 0.00 0.00 95 1013.8
20260506014720 58 90 0.0 0.0 0.00 0.00 0.00 95 1013.6
20260506014209 57 90 0.0 0.0 0.00 0.00 0.00 95 1013.5
20260506013659 57 90 0.0 0.0 0.00 0.00 0.00 95 1013.8
20260506013149 57 90 0.0 0.0 0.00 0.00 0.00 95 1014.0
20260506012639 58 90 0.0 0.0 0.00 0.00 0.00 95 1014.0
20260506012129 58 90 0.0 0.0 0.00 0.00 0.00 94 1014.1
20260506011108 59 90 0.0 0.0 0.00 0.00 0.00 94 1013.9
20260506010558 59 90 0.0 0.0 0.00 0.00 0.00 94 1013.8
20260506010059 59 90 0.0 0.0 0.00 0.00 0.00 94 1013.9
20260506005217 59 90 0.0 0.0 0.00 0.00 0.00 94 1013.9
20260506004156 60 90 0.0 0.0 0.00 0.00 0.00 94 1013.8
20260506003646 60 90 0.0 0.0 0.00 0.00 0.00 94 1013.9
20260506003136 60 90 0.0 0.0 0.00 0.00 0.00 94 1013.7
20260506002625 60 90 0.0 2.0 0.00 0.00 0.00 94 1013.4
20260506002115 60 90 0.0 2.0 0.00 0.00 0.00 94 1013.8
20260506001055 60 270 0.0 2.0 0.00 0.00 0.00 94 1013.6
20260506000545 60 248 0.0 0.0 0.00 0.00 0.00 94 1013.7
20260505235525 60 248 0.0 2.0 0.00 0.00 0.00 94 1013.8
20260505235016 60 248 0.0 2.0 0.00 0.00 0.00 93 1014.0
20260505234512 60 248 0.0 0.0 0.00 0.00 0.00 93 1013.9
20260505233445 60 248 0.0 0.0 0.00 0.00 0.00 93 1013.8
20260505232934 60 248 0.0 0.0 0.00 0.00 0.00 93 1013.9
20260505232424 60 248 0.0 0.0 0.00 0.00 0.00 93 1014.0
20260505231913 60 248 0.0 0.0 0.00 0.00 0.00 93 1014.0
20260505231404 60 248 0.0 0.0 0.00 0.00 0.00 93 1013.9
20260505230854 60 248 0.0 0.0 0.00 0.00 0.00 93 1014.0
20260505230343 61 338 0.0 2.0 0.00 0.00 0.00 93 1013.8
20260505225833 61 45 0.0 2.0 0.00 0.00 0.00 93 1013.6
20260505225323 61 158 0.0 2.0 0.00 0.00 0.00 92 1013.6
20260505224813 61 90 0.0 2.0 0.00 0.00 0.00 92 1013.6
20260505224302 61 45 0.0 2.0 0.00 0.00 0.00 92 1013.3
20260505223759 61 158 0.0 0.0 0.00 0.00 0.00 92 1013.2
20260505222536 61 113 1.0 2.0 0.00 0.00 0.00 92 1012.9
20260505220752 62 315 1.0 2.0 0.00 0.00 0.00 91 1013.0
20260505220244 62 158 0.0 0.0 0.00 0.00 0.00 91 1012.9
20260505215208 62 293 1.0 2.0 0.00 0.00 0.00 90 1012.9
20260505214658 62 180 0.0 2.0 0.00 0.00 0.00 90 1013.1
20260505214148 62 203 1.0 2.0 0.00 0.00 0.00 90 1013.1
20260505213637 62 68 0.0 2.0 0.00 0.00 0.00 89 1013.0
20260505213127 62 158 0.0 2.0 0.00 0.00 0.00 89 1012.9
20260505212616 62 90 1.0 2.0 0.00 0.00 0.00 89 1013.0
20260505212107 62 338 0.0 2.0 0.00 0.00 0.00 89 1013.0
20260505211557 62 315 0.0 4.0 0.00 0.00 0.00 89 1012.9
20260505211047 63 90 1.0 4.0 0.00 0.00 0.00 88 1012.8
20260505210544 63 203 2.0 4.0 0.00 0.00 0.00 88 1012.9
20260505210026 63 158 0.0 4.0 0.00 0.00 0.00 87 1012.7
20260505205516 63 45 1.0 4.0 0.00 0.00 0.00 86 1012.9
20260505205006 64 0 1.0 4.0 0.00 0.00 0.00 85 1012.7
20260505204456 64 68 1.0 4.0 0.00 0.00 0.00 83 1012.8
20260505203436 65 315 0.0 4.0 0.00 0.00 0.00 78 1012.8
20260505202421 67 68 0.0 4.0 0.00 0.00 0.00 76 1012.6
20260505201356 68 338 1.0 4.0 0.00 0.00 0.00 74 1012.8
20260505200845 69 90 1.0 2.0 0.00 0.00 0.00 70 1012.7
20260505200334 69 45 0.0 2.0 0.00 0.00 0.00 71 1012.5
20260505195824 68 315 0.0 4.0 0.00 0.00 0.00 72 1012.5
20260505195315 68 270 0.0 4.0 0.00 0.00 0.00 71 1012.7
20260505194805 69 68 1.0 4.0 0.00 0.00 0.00 71 1012.8
20260505194254 69 158 1.0 4.0 0.00 0.00 0.00 70 1012.8
20260505193745 69 225 1.0 2.0 0.00 0.00 0.00 68 1012.7
20260505193234 69 113 1.0 2.0 0.00 0.00 0.00 68 1012.9
20260505192724 69 270 1.0 2.0 0.00 0.00 0.00 68 1013.1
20260505192214 69 113 2.0 4.0 0.00 0.00 0.00 68 1013.0
20260505191703 70 113 1.0 4.0 0.00 0.00 0.00 65 1013.1
20260505190644 71 315 0.0 4.0 0.00 0.00 0.00 64 1013.0
20260505190133 73 135 1.0 4.0 0.00 0.00 0.00 60 1012.9
20260505185624 72 0 0.0 2.0 0.00 0.00 0.00 59 1012.8
20260505185113 71 293 0.0 4.0 0.00 0.00 0.00 61 1012.8
20260505184603 72 135 2.0 4.0 0.00 0.00 0.00 61 1012.7
20260505183542 70 293 0.0 6.0 0.00 0.00 0.00 64 1012.7
20260505183032 70 68 2.0 6.0 0.00 0.00 0.00 68 1012.6
20260505182522 70 135 1.0 4.0 0.00 0.00 0.00 66 1012.6
20260505182012 69 135 2.0 4.0 0.00 0.00 0.00 68 1012.4
20260505181502 70 270 1.0 4.0 0.00 0.00 0.00 69 1012.4
20260505180952 70 90 2.0 4.0 0.00 0.00 0.00 68 1012.6
20260505175931 70 68 0.0 4.0 0.00 0.00 0.00 67 1012.3
20260505174911 72 180 1.0 4.0 0.00 0.00 0.00 65 1012.3
20260505174401 74 23 1.0 4.0 0.00 0.00 0.00 58 1012.2
20260505173850 73 68 1.0 4.0 0.00 0.00 0.00 53 1012.4
20260505172831 73 45 1.0 2.0 0.00 0.00 0.00 53 1012.2
20260505172325 74 68 0.0 2.0 0.00 0.00 0.00 51 1012.4
20260505171300 74 45 1.0 4.0 0.00 0.00 0.00 52 1012.6